sat.trackr.live / text

‹ back to catalog

STARLINK-31598

NORAD 59263 · 2024-050K

PAYLOAD ACTIVE UNKNOWN

§ Identity

Operator
Country
US
Launch date
2024-03-19
Launch site
AFWTR
Launch vehicle
Mass (kg)
RCS (m²)

Purposes: comms

External: N2YO · Heavens-Above · Gunter

§ Orbital elements

Epoch: 2026-09-20T13:40:13.675008Z

Period
93.85 min
Inclination
53.1620°
Eccentricity
0.0001062
Mean motion
15.34400233 rev/d
Perigee alt
462.0 km
Apogee alt
463.4 km
Semi-major
6,840.8 km
B*
6.0425e-5
RAAN
353.0784°
Arg perigee
67.8339°
Mean anomaly
292.2776°
Rev number
14,042

§ Raw data

STARLINK-315981 59263U 24050K   26263.56960272  .00001666  00000+0  60425-4 0  99912 59263  53.1620 353.0784 0001062  67.8339 292.2776 15.34400233140420

JSON: /api/v1/satellites/59263 · /tle

For live sub-satellite position, see the globe view (requires WebGL).

§ Visibility from observer

Set your observer location to see the next 7 days of passes ≥ 10°. The values pass through the URL so the page stays shareable.

No JS? Fill the form by hand. The geolocation button needs JavaScript.